Hauptseite
METAR-TAF:

METAR-TAF

Flughäfen :

Flughafen Noto

Wajima, Japan

Breite: 37-17-36N, Länge: 136-57-44E, Höhe: 219 m

Beobachtung

Neuester Wetterbericht von vor 8 Stunden und 35 Minuten, um 10:00 UTC
Wind 14 kt aus West/Südwest
Temperatur 22°C
Luftfeuchtigkeit 100%
Luftdruck 999 hPa
Sichtweite: 0400 m
Regenschauer, Nebel,

METAR: RJNW 231000Z 24014KT 0400 R25/1000VP2000N -SHRA FG VV002 22/22 Q0999

Zeit: 03:35 (18:35 UTC)


TAF: fehlend

Wetterbeobachtungen und Prognosen von mehr als 4000 Flughäfen (METAR und TAF Bericht).

Die verfügbaren Stationen werden durch gelbe und rote Markierungen auf der Karte dargestellt.

Führen Sie die Maus auf sie, um den Namen der Station zu sehen.

Darauf klicken, um die Beobachtung von Wetterbeobachtungen und Prognosen zu sehen.

Um die Karte zu ändern : klicken Sie auf den grünen Tasten mit einem schwarzen Kreuz Zum Vergrößern, auf den grünen Button mit einem Gedankenstrich zu verkleinern, oder auf die grünen Pfeile für benachbarte Karten.


METAR-TAF: